Time,TemperatureF,DewpointF,PressureIn,WindDirection,WindDirectionDegrees,WindSpeedMPH,WindSpeedGustMPH,Humidity,HourlyPrecipIn,Conditions,Clouds,dailyrainin,SoftwareType,DateUTC
2013-04-18 00:03:00,59.0,57.0,-100.00,WNW,285,1.0,6.0,91,0.00,,,-99.99,,2013-04-18 04:03:00,
2013-04-18 00:13:00,58.0,56.0,-100.00,West,280,0.0,6.0,92,0.00,,,-99.99,,2013-04-18 04:13:00,
2013-04-18 00:23:00,58.0,56.0,-100.00,West,275,1.0,2.0,94,0.00,,,-99.99,,2013-04-18 04:23:00,
2013-04-18 00:33:00,59.0,57.0,-100.00,West,280,1.0,7.0,92,0.00,,,-99.99,,2013-04-18 04:33:00,
2013-04-18 00:43:00,58.0,56.0,-100.00,WSW,250,1.0,3.0,92,0.00,,,-99.99,,2013-04-18 04:43:00,
2013-04-18 00:53:00,58.0,56.0,-100.00,WNW,290,0.0,6.0,94,0.00,,,-99.99,,2013-04-18 04:53:00,
2013-04-18 01:02:00,57.0,55.0,-100.00,SE,140,2.0,4.0,94,0.00,,,-99.99,,2013-04-18 05:02:00,
2013-04-18 01:12:00,59.0,57.0,-100.00,SE,135,3.0,5.0,95,0.00,,,-99.99,,2013-04-18 05:12:00,
2013-04-18 01:22:00,59.0,57.0,-100.00,South,170,1.0,4.0,92,0.00,,,-99.99,,2013-04-18 05:22:00,
2013-04-18 01:33:00,59.0,57.0,-100.00,South,175,1.0,3.0,93,0.00,,,-99.99,,2013-04-18 05:33:00,
2013-04-18 01:42:00,58.0,56.0,-100.00,WSW,240,0.0,2.0,94,0.00,,,-99.99,,2013-04-18 05:42:00,
2013-04-18 01:52:00,57.0,56.0,-100.00,West,280,0.0,6.0,94,0.00,,,-99.99,,2013-04-18 05:52:00,
2013-04-18 02:02:00,55.0,54.0,-100.00,SE,130,1.0,2.0,95,0.00,,,-99.99,,2013-04-18 06:02:00,
2013-04-18 02:12:00,58.0,57.0,-100.00,SE,135,2.0,4.0,97,0.00,,,-99.99,,2013-04-18 06:12:00,
2013-04-18 02:22:00,58.0,57.0,-100.00,SE,135,2.0,3.0,96,0.00,,,-99.99,,2013-04-18 06:22:00,
2013-04-18 02:32:00,59.0,57.0,-100.00,SE,140,2.0,5.0,94,0.00,,,-99.99,,2013-04-18 06:32:00,
2013-04-18 02:42:00,59.0,57.0,-100.00,SE,135,2.0,5.0,93,0.00,,,-99.99,,2013-04-18 06:42:00,
2013-04-18 02:52:00,58.0,57.0,-100.00,SSE,150,2.0,3.0,94,0.00,,,-99.99,,2013-04-18 06:52:00,
2013-04-18 03:02:00,58.0,57.0,-100.00,SSE,150,1.0,2.0,95,0.00,,,-99.99,,2013-04-18 07:02:00,
2013-04-18 03:12:00,58.0,56.0,-100.00,SSE,150,1.0,2.0,95,0.00,,,-99.99,,2013-04-18 07:12:00,
2013-04-18 03:22:00,58.0,57.0,-100.00,SSE,155,2.0,3.0,96,0.00,,,-99.99,,2013-04-18 07:22:00,
2013-04-18 03:32:00,58.0,57.0,-100.00,SSE,165,2.0,3.0,95,0.00,,,-99.99,,2013-04-18 07:32:00,
2013-04-18 03:42:00,58.0,57.0,-100.00,SSE,160,2.0,4.0,94,0.00,,,-99.99,,2013-04-18 07:42:00,
2013-04-18 03:52:00,59.0,57.0,-100.00,SSE,165,2.0,3.0,94,0.00,,,-99.99,,2013-04-18 07:52:00,
2013-04-18 04:02:00,59.0,57.0,-100.00,SSE,165,1.0,3.0,94,0.00,,,-99.99,,2013-04-18 08:02:00,
2013-04-18 04:12:00,58.0,57.0,-100.00,South,170,1.0,2.0,94,0.00,,,-99.99,,2013-04-18 08:12:00,
2013-04-18 04:22:00,58.0,57.0,-100.00,South,170,1.0,2.0,94,0.00,,,-99.99,,2013-04-18 08:22:00,
2013-04-18 04:32:00,58.0,56.0,-100.00,WNW,285,1.0,3.0,94,0.00,,,-99.99,,2013-04-18 08:32:00,
2013-04-18 04:42:00,57.0,56.0,-100.00,SSW,200,1.0,7.0,95,0.00,,,-99.99,,2013-04-18 08:42:00,
2013-04-18 04:52:00,57.0,56.0,-100.00,SE,145,1.0,3.0,95,0.00,,,-99.99,,2013-04-18 08:52:00,
2013-04-18 05:02:00,58.0,56.0,-100.00,West,265,2.0,7.0,95,0.00,,,-99.99,,2013-04-18 09:02:00,
2013-04-18 05:12:00,57.0,56.0,-100.00,WNW,285,1.0,4.0,94,0.00,,,-99.99,,2013-04-18 09:12:00,
2013-04-18 05:22:00,57.0,56.0,-100.00,SSE,160,1.0,5.0,95,0.00,,,-99.99,,2013-04-18 09:22:00,
2013-04-18 05:33:00,58.0,56.0,-100.00,WSW,240,1.0,3.0,96,0.00,,,-99.99,,2013-04-18 09:33:00,
2013-04-18 05:43:00,57.0,56.0,-100.00,West,275,1.0,5.0,95,0.00,,,-99.99,,2013-04-18 09:43:00,
2013-04-18 05:53:00,58.0,56.0,-100.00,WNW,300,1.0,6.0,95,0.00,,,-99.99,,2013-04-18 09:53:00,
2013-04-18 06:03:00,58.0,56.0,-100.00,WNW,295,2.0,6.0,94,0.00,,,-99.99,,2013-04-18 10:03:00,
2013-04-18 06:12:00,57.0,56.0,-100.00,West,265,3.0,8.0,93,0.00,,,-99.99,,2013-04-18 10:12:00,
2013-04-18 06:23:00,57.0,56.0,-100.00,SSW,200,1.0,6.0,94,0.00,,,-99.99,,2013-04-18 10:23:00,
2013-04-18 06:33:00,57.0,55.0,-100.00,South,190,1.0,4.0,94,0.00,,,-99.99,,2013-04-18 10:33:00,
2013-04-18 06:42:00,58.0,56.0,-100.00,SW,220,1.0,6.0,93,0.00,,,-99.99,,2013-04-18 10:42:00,
2013-04-18 06:52:00,58.0,56.0,-100.00,West,265,2.0,10.0,92,0.00,,,-99.99,,2013-04-18 10:52:00,
2013-04-18 07:02:00,58.0,56.0,-100.00,SSW,210,1.0,8.0,91,0.00,,,-99.99,,2013-04-18 11:02:00,
2013-04-18 07:12:00,58.0,56.0,-100.00,SSW,200,1.0,6.0,92,0.00,,,-99.99,,2013-04-18 11:12:00,
2013-04-18 07:22:00,58.0,56.0,-100.00,West,265,2.0,7.0,91,0.00,,,-99.99,,2013-04-18 11:22:00,
2013-04-18 07:32:00,59.0,56.0,-100.00,SW,215,2.0,8.0,89,0.00,,,-99.99,,2013-04-18 11:32:00,
2013-04-18 07:42:00,59.0,56.0,-100.00,SW,215,2.0,8.0,89,0.00,,,-99.99,,2013-04-18 11:42:00,
2013-04-18 07:52:00,59.0,56.0,-100.00,SSE,165,1.0,5.0,89,0.00,,,-99.99,,2013-04-18 11:52:00,
2013-04-18 08:02:00,59.0,56.0,-100.00,NW,315,1.0,4.0,89,0.00,,,-99.99,,2013-04-18 12:02:00,
2013-04-18 08:12:00,60.0,56.0,-100.00,SSE,165,2.0,3.0,87,0.00,,,-99.99,,2013-04-18 12:12:00,
2013-04-18 08:23:00,62.0,57.0,-100.00,SSE,165,1.0,3.0,84,0.00,,,-99.99,,2013-04-18 12:23:00,
2013-04-18 08:32:00,62.0,57.0,-100.00,SSE,160,1.0,3.0,83,0.00,,,-99.99,,2013-04-18 12:32:00,
2013-04-18 08:42:00,63.0,57.0,-100.00,SSE,165,2.0,3.0,81,0.00,,,-99.99,,2013-04-18 12:42:00,
2013-04-18 08:52:00,64.0,57.0,-100.00,South,185,2.0,5.0,78,0.00,,,-99.99,,2013-04-18 12:52:00,
2013-04-18 09:03:00,64.0,57.0,-100.00,SSE,165,2.0,5.0,77,0.00,,,-99.99,,2013-04-18 13:03:00,
2013-04-18 09:12:00,65.0,58.0,-100.00,South,190,4.0,6.0,77,0.00,,,-99.99,,2013-04-18 13:12:00,
2013-04-18 09:22:00,66.0,57.0,-100.00,South,190,6.0,9.0,73,0.00,,,-99.99,,2013-04-18 13:22:00,
2013-04-18 09:32:00,66.0,58.0,-100.00,South,190,5.0,9.0,74,0.00,,,-99.99,,2013-04-18 13:32:00,
2013-04-18 09:42:00,67.0,58.0,-100.00,South,190,5.0,10.0,72,0.00,,,-99.99,,2013-04-18 13:42:00,
2013-04-18 09:52:00,68.0,59.0,-100.00,SSW,200,7.0,14.0,72,0.00,,,-99.99,,2013-04-18 13:52:00,
2013-04-18 10:02:00,68.0,58.0,-100.00,SSW,195,9.0,14.0,70,0.00,,,-99.99,,2013-04-18 14:02:00,
2013-04-18 10:12:00,68.0,58.0,-100.00,SSW,195,9.0,13.0,69,0.00,,,-99.99,,2013-04-18 14:12:00,
2013-04-18 10:22:00,69.0,59.0,-100.00,SSW,200,9.0,12.0,70,0.00,,,-99.99,,2013-04-18 14:22:00,
2013-04-18 10:32:00,70.0,59.0,-100.00,South,190,7.0,12.0,69,0.00,,,-99.99,,2013-04-18 14:32:00,
2013-04-18 10:42:00,70.0,59.0,-100.00,SSW,205,9.0,13.0,67,0.00,,,-99.99,,2013-04-18 14:42:00,
2013-04-18 10:52:00,71.0,59.0,-100.00,South,190,6.0,12.0,67,0.00,,,-99.99,,2013-04-18 14:52:00,
2013-04-18 11:03:00,73.0,59.0,-100.00,SSW,195,7.0,10.0,63,0.00,,,-99.99,,2013-04-18 15:03:00,
2013-04-18 11:12:00,72.0,59.0,-100.00,SSW,195,11.0,19.0,64,0.00,,,-99.99,,2013-04-18 15:12:00,
2013-04-18 11:22:00,73.0,60.0,-100.00,SSW,195,9.0,16.0,63,0.00,,,-99.99,,2013-04-18 15:22:00,
2013-04-18 11:33:00,73.0,61.0,-100.00,SSW,200,6.0,16.0,65,0.00,,,-99.99,,2013-04-18 15:33:00,
2013-04-18 11:43:00,74.0,61.0,-100.00,SSW,195,9.0,17.0,64,0.00,,,-99.99,,2013-04-18 15:43:00,
2013-04-18 11:52:00,74.0,61.0,-100.00,South,190,9.0,16.0,63,0.00,,,-99.99,,2013-04-18 15:52:00,
2013-04-18 12:03:00,75.0,61.0,-100.00,South,190,7.0,14.0,62,0.00,,,-99.99,,2013-04-18 16:03:00,
2013-04-18 12:13:00,76.0,61.0,-100.00,SSW,200,9.0,14.0,59,0.00,,,-99.99,,2013-04-18 16:13:00,
2013-04-18 12:23:00,76.0,61.0,-100.00,SSW,200,7.0,15.0,60,0.00,,,-99.99,,2013-04-18 16:23:00,
2013-04-18 12:33:00,77.0,60.0,-100.00,SSW,195,10.0,17.0,56,0.00,,,-99.99,,2013-04-18 16:33:00,
2013-04-18 12:43:00,77.0,60.0,-100.00,SSW,195,10.0,17.0,56,0.00,,,-99.99,,2013-04-18 16:43:00,
2013-04-18 12:52:00,78.0,61.0,-100.00,SSW,195,11.0,16.0,54,0.00,,,-99.99,,2013-04-18 16:52:00,
2013-04-18 13:03:00,78.0,60.0,-100.00,South,190,9.0,12.0,53,0.00,,,-99.99,,2013-04-18 17:03:00,
2013-04-18 13:12:00,79.0,62.0,-100.00,SSW,195,7.0,14.0,57,0.00,,,-99.99,,2013-04-18 17:12:00,
2013-04-18 13:22:00,78.0,63.0,-100.00,South,190,9.0,15.0,58,0.00,,,-99.99,,2013-04-18 17:22:00,
2013-04-18 13:33:00,80.0,61.0,-100.00,SSW,195,7.0,12.0,53,0.00,,,-99.99,,2013-04-18 17:33:00,
2013-04-18 13:42:00,80.0,62.0,-100.00,South,185,9.0,19.0,53,0.00,,,-99.99,,2013-04-18 17:42:00,
2013-04-18 13:52:00,81.0,61.0,-100.00,South,190,6.0,14.0,51,0.00,,,-99.99,,2013-04-18 17:52:00,
2013-04-18 14:03:00,80.0,60.0,-100.00,South,190,8.0,12.0,50,0.00,,,-99.99,,2013-04-18 18:03:00,
2013-04-18 14:12:00,80.0,61.0,-100.00,SSW,205,5.0,12.0,51,0.00,,,-99.99,,2013-04-18 18:12:00,
2013-04-18 14:23:00,81.0,61.0,-100.00,SSW,195,7.0,11.0,50,0.00,,,-99.99,,2013-04-18 18:23:00,
2013-04-18 14:32:00,82.0,61.0,-100.00,South,190,7.0,11.0,48,0.00,,,-99.99,,2013-04-18 18:32:00,
2013-04-18 14:42:00,82.0,60.0,-100.00,SW,215,7.0,16.0,48,0.00,,,-99.99,,2013-04-18 18:42:00,
2013-04-18 14:52:00,82.0,58.0,-100.00,South,190,15.0,21.0,43,0.00,,,-99.99,,2013-04-18 18:52:00,
2013-04-18 15:03:00,81.0,57.0,-100.00,South,185,11.0,19.0,43,0.00,,,-99.99,,2013-04-18 19:03:00,
2013-04-18 15:12:00,82.0,56.0,-100.00,SSW,195,9.0,16.0,41,0.00,,,-99.99,,2013-04-18 19:12:00,
2013-04-18 15:22:00,83.0,56.0,-100.00,SSW,200,11.0,16.0,39,0.00,,,-99.99,,2013-04-18 19:22:00,
2013-04-18 15:32:00,83.0,58.0,-100.00,SSW,195,11.0,18.0,41,0.00,,,-99.99,,2013-04-18 19:32:00,
2013-04-18 15:42:00,83.0,55.0,-100.00,SSW,200,9.0,19.0,38,0.00,,,-99.99,,2013-04-18 19:42:00,
2013-04-18 15:52:00,83.0,58.0,-100.00,South,190,12.0,17.0,41,0.00,,,-99.99,,2013-04-18 19:52:00,
2013-04-18 16:02:00,82.0,55.0,-100.00,South,185,13.0,21.0,39,0.00,,,-99.99,,2013-04-18 20:02:00,
2013-04-18 16:12:00,82.0,57.0,-100.00,SSW,195,10.0,18.0,41,0.00,,,-99.99,,2013-04-18 20:12:00,
2013-04-18 16:22:00,82.0,56.0,-100.00,SSW,205,11.0,19.0,40,0.00,,,-99.99,,2013-04-18 20:22:00,
2013-04-18 16:32:00,82.0,58.0,-100.00,SSW,205,10.0,20.0,43,0.00,,,-99.99,,2013-04-18 20:32:00,
2013-04-18 16:42:00,84.0,56.0,-100.00,SSW,195,11.0,19.0,39,0.00,,,-99.99,,2013-04-18 20:42:00,
2013-04-18 16:52:00,82.0,55.0,-100.00,SSW,195,12.0,21.0,38,0.00,,,-99.99,,2013-04-18 20:52:00,
2013-04-18 17:02:00,83.0,57.0,-100.00,South,185,10.0,19.0,40,0.00,,,-99.99,,2013-04-18 21:02:00,
2013-04-18 17:12:00,83.0,57.0,-100.00,SSW,195,15.0,19.0,40,0.00,,,-99.99,,2013-04-18 21:12:00,
2013-04-18 17:22:00,82.0,56.0,-100.00,South,190,12.0,20.0,41,0.00,,,-99.99,,2013-04-18 21:22:00,
2013-04-18 17:33:00,82.0,56.0,-100.00,South,190,12.0,20.0,41,0.00,,,-99.99,,2013-04-18 21:33:00,
2013-04-18 17:43:00,81.0,57.0,-100.00,SSW,195,11.0,14.0,42,0.00,,,-99.99,,2013-04-18 21:43:00,
2013-04-18 17:52:00,82.0,57.0,-100.00,SSW,200,7.0,16.0,42,0.00,,,-99.99,,2013-04-18 21:52:00,
2013-04-18 18:03:00,82.0,56.0,-100.00,SSW,195,7.0,19.0,42,0.00,,,-99.99,,2013-04-18 22:03:00,
2013-04-18 18:13:00,82.0,57.0,-100.00,South,190,9.0,16.0,43,0.00,,,-99.99,,2013-04-18 22:13:00,
2013-04-18 18:23:00,82.0,57.0,-100.00,SSW,205,9.0,16.0,42,0.00,,,-99.99,,2013-04-18 22:23:00,
2013-04-18 18:33:00,82.0,57.0,-100.00,SSW,200,7.0,12.0,42,0.00,,,-99.99,,2013-04-18 22:33:00,
2013-04-18 18:42:00,82.0,57.0,-100.00,SSW,195,9.0,15.0,41,0.00,,,-99.99,,2013-04-18 22:42:00,
2013-04-18 18:52:00,81.0,58.0,-100.00,South,190,9.0,13.0,46,0.00,,,-99.99,,2013-04-18 22:52:00,
2013-04-18 19:04:00,80.0,59.0,-100.00,South,185,6.0,11.0,47,0.00,,,-99.99,,2013-04-18 23:04:00,
2013-04-18 19:12:00,80.0,58.0,-100.00,South,190,10.0,13.0,46,0.00,,,-99.99,,2013-04-18 23:12:00,
2013-04-18 19:21:00,81.0,57.0,-100.00,SSW,200,8.0,12.0,45,0.00,,,-99.99,,2013-04-18 23:21:00,
2013-04-18 19:32:00,80.0,56.0,-100.00,SSW,195,10.0,16.0,45,0.00,,,-99.99,,2013-04-18 23:32:00,
2013-04-18 19:42:00,79.0,57.0,-100.00,SSW,195,8.0,13.0,46,0.00,,,-99.99,,2013-04-18 23:42:00,
2013-04-18 19:52:00,79.0,57.0,-100.00,SSW,195,9.0,14.0,47,0.00,,,-99.99,,2013-04-18 23:52:00,
2013-04-18 20:01:00,79.0,57.0,-100.00,South,190,9.0,14.0,47,0.00,,,-99.99,,2013-04-19 00:01:00,
2013-04-18 20:12:00,79.0,57.0,-100.00,SSW,200,8.0,12.0,47,0.00,,,-99.99,,2013-04-19 00:12:00,
2013-04-18 20:22:00,78.0,57.0,-100.00,South,185,6.0,12.0,48,0.00,,,-99.99,,2013-04-19 00:22:00,
2013-04-18 20:32:00,77.0,57.0,-100.00,South,190,6.0,10.0,50,0.00,,,-99.99,,2013-04-19 00:32:00,
2013-04-18 20:42:00,76.0,57.0,-100.00,South,190,6.0,8.0,52,0.00,,,-99.99,,2013-04-19 00:42:00,
2013-04-18 20:51:00,75.0,57.0,-100.00,SSW,195,6.0,8.0,53,0.00,,,-99.99,,2013-04-19 00:51:00,
2013-04-18 21:01:00,75.0,57.0,-100.00,South,185,5.0,7.0,53,0.00,,,-99.99,,2013-04-19 01:01:00,
2013-04-18 21:11:00,75.0,57.0,-100.00,South,190,5.0,7.0,54,0.00,,,-99.99,,2013-04-19 01:11:00,
2013-04-18 21:21:00,74.0,57.0,-100.00,SSW,195,4.0,6.0,55,0.00,,,-99.99,,2013-04-19 01:21:00,
2013-04-18 21:32:00,74.0,57.0,-100.00,South,190,4.0,6.0,56,0.00,,,-99.99,,2013-04-19 01:32:00,
2013-04-18 21:42:00,73.0,57.0,-100.00,South,185,2.0,6.0,57,0.00,,,-99.99,,2013-04-19 01:42:00,
2013-04-18 21:52:00,73.0,57.0,-100.00,South,180,2.0,4.0,57,0.00,,,-99.99,,2013-04-19 01:52:00,
2013-04-18 22:02:00,74.0,57.0,-100.00,South,190,4.0,7.0,54,0.00,,,-99.99,,2013-04-19 02:02:00,
2013-04-18 22:11:00,74.0,57.0,-100.00,South,185,5.0,9.0,54,0.00,,,-99.99,,2013-04-19 02:11:00,
2013-04-18 22:21:00,75.0,57.0,-100.00,South,190,6.0,7.0,53,0.00,,,-99.99,,2013-04-19 02:21:00,
2013-04-18 22:32:00,75.0,57.0,-100.00,South,185,4.0,7.0,53,0.00,,,-99.99,,2013-04-19 02:32:00,
2013-04-18 22:42:00,74.0,57.0,-100.00,South,175,4.0,7.0,54,0.00,,,-99.99,,2013-04-19 02:42:00,
2013-04-18 22:51:00,74.0,56.0,-100.00,South,185,6.0,9.0,53,0.00,,,-99.99,,2013-04-19 02:51:00,
2013-04-18 23:01:00,74.0,56.0,-100.00,South,185,6.0,11.0,53,0.00,,,-99.99,,2013-04-19 03:01:00,
2013-04-18 23:12:00,74.0,56.0,-100.00,South,185,6.0,12.0,52,0.00,,,-99.99,,2013-04-19 03:12:00,
2013-04-18 23:21:00,74.0,55.0,-100.00,South,175,7.0,11.0,51,0.00,,,-99.99,,2013-04-19 03:21:00,
2013-04-18 23:33:00,75.0,55.0,-100.00,South,190,10.0,15.0,49,0.00,,,-99.99,,2013-04-19 03:33:00,
2013-04-18 23:43:00,74.0,55.0,-100.00,South,190,6.0,13.0,51,0.00,,,-99.99,,2013-04-19 03:43:00,
2013-04-18 23:53:00,74.0,55.0,-100.00,South,185,7.0,16.0,50,0.00,,,-99.99,,2013-04-19 03:53:00,